| time (UTC) | temp F | wind direction | speed knots | gust knots | rain 1hr in | rain 24hr in | rain mn in | humidity % | barometer mb |
| 20260504195351 | 79 | 178 | 12.2 | 20.9 | 0.00 | 0.00 | 0.00 | 52 | 1008.9 |
| 20260504193211 | 79 | 185 | 11.3 | 23.5 | 0.00 | 0.00 | 0.00 | 50 | 1009.3 |
| 20260504192212 | 79 | 192 | 10.4 | 23.5 | 0.00 | 0.00 | 0.00 | 52 | 1009.4 |
| 20260504190013 | 78 | 180 | 11.3 | 24.3 | 0.00 | 0.00 | 0.00 | 53 | 1009.8 |
| 20260504185000 | 78 | 167 | 11.3 | 24.3 | 0.00 | 0.00 | 0.00 | 51 | 1009.7 |
| 20260504184025 | 78 | 182 | 9.6 | 20.0 | 0.00 | 0.00 | 0.00 | 52 | 1009.8 |
| 20260504183041 | 77 | 207 | 10.4 | 20.9 | 0.00 | 0.00 | 0.00 | 52 | 1010.0 |
| 20260504182045 | 77 | 221 | 11.3 | 21.7 | 0.00 | 0.00 | 0.00 | 53 | 1010.2 |
| 20260504181040 | 76 | 207 | 10.4 | 21.7 | 0.00 | 0.00 | 0.00 | 57 | 1010.4 |
| 20260504180031 | 76 | 173 | 13.0 | 23.5 | 0.00 | 0.00 | 0.00 | 54 | 1010.5 |
| 20260504175022 | 76 | 210 | 12.2 | 23.5 | 0.00 | 0.00 | 0.00 | 54 | 1010.7 |
| 20260504172911 | 74 | 204 | 13.0 | 25.2 | 0.00 | 0.00 | 0.00 | 56 | 1011.2 |
| 20260504171918 | 74 | 218 | 13.0 | 25.2 | 0.00 | 0.00 | 0.00 | 56 | 1011.4 |
| 20260504170919 | 74 | 202 | 13.0 | 25.2 | 0.00 | 0.00 | 0.00 | 56 | 1011.8 |
| 20260504150602 | 69 | 185 | 12.2 | 24.3 | 0.00 | 0.00 | 0.00 | 67 | 1012.6 |
| 20260504110306 | 61 | 183 | 3.5 | 8.7 | 0.00 | 0.00 | 0.00 | 79 | 1012.6 |
| 20260504100134 | 62 | 169 | 2.6 | 6.1 | 0.00 | 0.00 | 0.00 | 76 | 1012.8 |
| 20260504080459 | 61 | 173 | 2.6 | 4.3 | 0.00 | 0.00 | 0.00 | 72 | 1013.6 |
| 20260504070334 | 62 | 182 | 3.5 | 7.8 | 0.00 | 0.00 | 0.00 | 69 | 1014.2 |
| 20260504045950 | 63 | 177 | 2.6 | 5.2 | 0.00 | 0.00 | 0.00 | 67 | 1015.5 |
| 20260504044939 | 63 | 183 | 3.5 | 5.2 | 0.00 | 0.00 | 0.00 | 67 | 1015.6 |
| 20260504043947 | 63 | 178 | 2.6 | 5.2 | 0.00 | 0.00 | 0.00 | 66 | 1015.6 |
| 20260504042929 | 63 | 181 | 2.6 | 6.1 | 0.00 | 0.00 | 0.00 | 65 | 1015.6 |
| 20260504041927 | 64 | 184 | 2.6 | 6.1 | 0.00 | 0.00 | 0.00 | 64 | 1015.6 |
| 20260504035834 | 64 | 180 | 2.6 | 6.1 | 0.00 | 0.00 | 0.00 | 63 | 1015.6 |
| 20260504034843 | 64 | 180 | 2.6 | 6.1 | 0.00 | 0.00 | 0.00 | 62 | 1015.7 |
| 20260504033845 | 64 | 186 | 2.6 | 6.1 | 0.00 | 0.00 | 0.00 | 62 | 1015.7 |
| 20260504032905 | 65 | 180 | 1.7 | 4.3 | 0.00 | 0.00 | 0.00 | 60 | 1015.6 |
| 20260504031918 | 65 | 175 | 2.6 | 5.2 | 0.00 | 0.00 | 0.00 | 59 | 1015.4 |
| 20260504030925 | 66 | 180 | 2.6 | 5.2 | 0.00 | 0.00 | 0.00 | 58 | 1015.5 |
| 20260504024751 | 67 | 173 | 2.6 | 5.2 | 0.00 | 0.00 | 0.00 | 56 | 1015.4 |
| 20260504023734 | 68 | 175 | 3.5 | 8.7 | 0.00 | 0.00 | 0.00 | 54 | 1015.5 |
| 20260504022732 | 68 | 184 | 4.3 | 8.7 | 0.00 | 0.00 | 0.00 | 54 | 1015.4 |
| 20260504021749 | 68 | 164 | 3.5 | 7.8 | 0.00 | 0.00 | 0.00 | 53 | 1015.3 |
| 20260504020810 | 69 | 180 | 3.5 | 6.1 | 0.00 | 0.00 | 0.00 | 52 | 1015.3 |
| 20260504015818 | 69 | 161 | 3.5 | 7.0 | 0.00 | 0.00 | 0.00 | 51 | 1015.3 |
| 20260504014759 | 70 | 178 | 3.5 | 9.6 | 0.00 | 0.00 | 0.00 | 50 | 1015.2 |
| 20260504013802 | 70 | 179 | 3.5 | 9.6 | 0.00 | 0.00 | 0.00 | 49 | 1015.2 |
| 20260504012750 | 71 | 178 | 3.5 | 7.0 | 0.00 | 0.00 | 0.00 | 49 | 1015.1 |
| 20260504011725 | 72 | 189 | 3.5 | 7.8 | 0.00 | 0.00 | 0.00 | 48 | 1015.0 |
| 20260504010727 | 73 | 157 | 4.3 | 8.7 | 0.00 | 0.00 | 0.00 | 47 | 1015.0 |
| 20260504005703 | 74 | 190 | 5.2 | 8.7 | 0.00 | 0.00 | 0.00 | 46 | 1014.9 |
| 20260504004717 | 75 | 174 | 4.3 | 11.3 | 0.00 | 0.00 | 0.00 | 45 | 1014.9 |
| 20260504003732 | 76 | 173 | 6.1 | 12.2 | 0.00 | 0.00 | 0.00 | 44 | 1014.9 |
| 20260504002709 | 76 | 184 | 7.0 | 12.2 | 0.00 | 0.00 | 0.00 | 44 | 1014.9 |
| 20260504001713 | 77 | 188 | 7.0 | 11.3 | 0.00 | 0.00 | 0.00 | 42 | 1014.9 |
| 20260504000646 | 78 | 184 | 7.0 | 12.2 | 0.00 | 0.00 | 0.00 | 41 | 1015.0 |
| 20260503235625 | 78 | 180 | 7.0 | 13.9 | 0.00 | 0.00 | 0.00 | 40 | 1014.9 |
| 20260503233548 | 79 | 184 | 7.0 | 13.0 | 0.00 | 0.00 | 0.00 | 38 | 1015.2 |
| 20260503232528 | 79 | 173 | 8.7 | 15.6 | 0.00 | 0.00 | 0.00 | 37 | 1015.2 |
| 20260503231457 | 80 | 175 | 8.7 | 16.5 | 0.00 | 0.00 | 0.00 | 37 | 1015.3 |
| 20260503230517 | 80 | 184 | 8.7 | 16.5 | 0.00 | 0.00 | 0.00 | 36 | 1015.3 |
| 20260503223159 | 81 | 161 | 7.0 | 13.9 | 0.00 | 0.00 | 0.00 | 37 | 1015.5 |
| 20260503222200 | 81 | 171 | 7.8 | 14.8 | 0.00 | 0.00 | 0.00 | 34 | 1015.7 |
| 20260503221202 | 81 | 180 | 8.7 | 14.8 | 0.00 | 0.00 | 0.00 | 35 | 1015.7 |
| 20260503213938 | 81 | 189 | 8.7 | 17.4 | 0.00 | 0.00 | 0.00 | 37 | 1015.9 |
| 20260503212920 | 83 | 188 | 6.1 | 12.2 | 0.00 | 0.00 | 0.00 | 37 | 1016.1 |
| 20260503211918 | 83 | 207 | 6.1 | 12.2 | 0.00 | 0.00 | 0.00 | 34 | 1016.3 |
| 20260503205845 | 83 | 200 | 6.1 | 13.0 | 0.00 | 0.00 | 0.00 | 34 | 1016.6 |
| 20260503204909 | 83 | 168 | 6.1 | 13.0 | 0.00 | 0.00 | 0.00 | 34 | 1016.8 |
| 20260503203920 | 83 | 183 | 6.1 | 11.3 | 0.00 | 0.00 | 0.00 | 36 | 1016.9 |
| 20260503201815 | 82 | 178 | 7.8 | 14.8 | 0.00 | 0.00 | 0.00 | 34 | 1017.3 |
| 20260503200746 | 82 | 223 | 3.5 | 12.2 | 0.00 | 0.00 | 0.00 | 36 | 1017.6 |